Washington, NC

7:19 AM EST on November 22, 2017 (GMT -0500)
Warren

Weather History for KOCW - March, 2013

Change the Weather History Date:

Sunday, March 10, 2013

  Actual Average (KPGV) Record (KPGV)
Temperature  
Mean Temperature 46 °F -  
Max Temperature 64 °F 62 °F 82 °F (2016)
Min Temperature 29 °F 37 °F 23 °F (1960)
Degree Days  
Heating Degree Days 18    
Moisture  
Dew Point 24 °F    
Average Humidity 54    
Maximum Humidity 83    
Minimum Humidity 4    
Precipitation  
Precipitation 0.00 in - - ()
Sea Level Pressure  
Sea Level Pressure 30.29 in    
Wind  
Wind Speed 2 mph (ESE)    
Max Wind Speed 10 mph    
Max Gust Speed -    
Visibility 10 miles    
Events      
Averages and records for this station are not official NWS values.
T = Trace of Precipitation, MM = Missing Value Source: NWS Daily Summary

Daily Weather History Graph

Daily Weather History Graph

Search for Another Location

Airport or City:

Trip Planner

Search our weather history database for the weather conditions in past years. The results will help you decide how hot, cold, wet, or windy it might be!

Date:

Astronomy

Mar. 10, 2013 Rise Set
Actual Time 7:25 AM EDT 7:11 PM EDT
Civil Twilight 7:00 AM EDT 7:37 PM EDT
Nautical Twilight 6:30 AM EDT 8:06 PM EDT
Astronomical Twilight 6:01 AM EDT 8:36 PM EDT
Moon 6:22 AM EDT (3/10) 6:17 PM EDT (3/10)
Length of Visible Light 12h 36m
Length of Day
11h 46m
Waning Crescent, 2% of the Moon is Illuminated
Mar 10
Waning Crescent
Mar 11
New
Mar 19
First Quarter
Mar 27
Full
Apr 3
Last Quarter

Hourly Weather History & Observations

Time (EDT) Temp. Windchill Dew Point Humidity Pressure Visibility Wind Dir Wind Speed Gust Speed Precip Events Conditions
12:15 AM 37.6 °F - 32.2 °F 81% 30.30 in 10.0 mi Calm Calm - N/A   Clear
12:35 AM 37.4 °F - 32.2 °F 81% 30.30 in 10.0 mi Calm Calm - N/A   Clear
12:55 AM 36.7 °F - 31.5 °F 81% 30.31 in 10.0 mi Calm Calm - N/A   Clear
1:15 AM 35.1 °F - 29.8 °F 81% 30.32 in 10.0 mi Calm Calm - N/A   Clear
1:35 AM 33.8 °F - 28.9 °F 82% 30.32 in 10.0 mi Calm Calm - N/A   Clear
1:55 AM 33.1 °F - 28.4 °F 83% 30.31 in 10.0 mi Calm Calm - N/A   Clear
3:15 AM 32.5 °F - 27.5 °F 82% 30.31 in 10.0 mi Calm Calm - N/A   Clear
3:35 AM 32.7 °F - 28.0 °F 83% 30.30 in 10.0 mi Calm Calm - N/A   Clear
3:55 AM 32.5 °F - 27.5 °F 82% 30.29 in 10.0 mi Calm Calm - N/A   Clear
4:15 AM 32.5 °F - 27.9 °F 83% 30.28 in 10.0 mi Calm Calm - N/A   Clear
4:35 AM 32.5 °F - 27.9 °F 83% 30.28 in 10.0 mi Calm Calm - N/A   Clear
4:55 AM 32.5 °F - 27.9 °F 83% 30.27 in 10.0 mi Calm Calm - N/A   Clear
5:15 AM 32.5 °F - 27.9 °F 83% 30.28 in 10.0 mi Calm Calm - N/A   Clear
5:35 AM 32.5 °F - 27.9 °F 83% 30.29 in 10.0 mi Calm Calm - N/A   Clear
5:55 AM 32.5 °F - 27.9 °F 83% 30.29 in 10.0 mi Calm Calm - N/A   Clear
6:15 AM 32.5 °F - 27.9 °F 83% 30.29 in 10.0 mi Calm Calm - N/A   Clear
6:55 AM 30.2 °F - 25.2 °F 82% 30.30 in 10.0 mi Calm Calm - N/A   Clear
7:15 AM 29.5 °F - 24.4 °F 81% 30.30 in 10.0 mi Calm Calm - N/A   Clear
8:35 AM 32.5 °F - 27.5 °F 82% 30.32 in 10.0 mi Calm Calm - N/A   Clear
8:55 AM 37.6 °F - 32.2 °F 81% 30.32 in 10.0 mi Calm Calm - N/A   Clear
9:15 AM 40.1 °F 38.0 °F 33.1 °F 76% 30.32 in 10.0 mi North 3.5 mph - N/A   Clear
9:35 AM 42.8 °F - 34.2 °F 72% 30.32 in 10.0 mi Calm Calm - N/A   Clear
9:55 AM 45.3 °F 41.6 °F 32.5 °F 61% 30.32 in 10.0 mi ENE 6.9 mph - N/A   Clear
10:15 AM 47.7 °F - 28.8 °F 48% 30.32 in 10.0 mi ENE 5.8 mph - N/A   Clear
10:35 AM 52.7 °F - 27.1 °F 37% 30.32 in 10.0 mi ENE 5.8 mph - N/A   Clear
10:55 AM 52.7 °F - 23.7 °F 32% 30.32 in 10.0 mi East 5.8 mph - N/A   Clear
11:15 AM 55.4 °F - 18.7 °F 24% 30.33 in 10.0 mi ESE 3.5 mph - N/A   Clear
11:35 AM 56.7 °F - 15.6 °F 20% 30.33 in 10.0 mi North 4.6 mph - N/A   Clear
11:55 AM 58.1 °F - 16.2 °F 19% 30.33 in 5.0 mi NE 3.5 mph - N/A   Haze
12:15 PM 58.8 °F - -4.9 °F 7% 30.33 in 5.0 mi ENE 3.5 mph - N/A   Haze
12:35 PM 60.4 °F - -5.1 °F 7% 30.32 in 7.0 mi East 3.5 mph - N/A   Clear
12:55 PM 60.4 °F - -9.8 °F 6% 30.32 in 7.0 mi SE 4.6 mph - N/A   Clear
1:15 PM 60.4 °F - -9.0 °F 6% 30.31 in 10.0 mi ESE 5.8 mph - N/A   Clear
1:35 PM 62.6 °F - -21.5 °F 4% 30.30 in 10.0 mi ENE 6.9 mph - N/A   Clear
1:55 PM 63.0 °F - -0.8 °F 8% 30.29 in 10.0 mi East 3.5 mph - N/A   Clear
2:15 PM 63.0 °F - -6.5 °F 6% 30.28 in 10.0 mi Calm Calm - N/A   Clear
2:35 PM 63.0 °F - -9.9 °F 5% 30.27 in 10.0 mi Calm Calm - N/A   Clear
2:55 PM 63.1 °F - -19.3 °F 4% 30.26 in 10.0 mi ESE 10.4 mph - N/A   Clear
3:15 PM - - - N/A% 30.26 in 10.0 mi ENE 6.9 mph - N/A   Clear
3:35 PM - - - N/A% 30.26 in 10.0 mi Calm Calm - N/A   Clear
3:55 PM 64.4 °F - 1.9 °F 8% 30.26 in 10.0 mi SSW 8.1 mph - N/A   Clear
4:15 PM 63.0 °F - 8.6 °F 12% 30.26 in 10.0 mi South 8.1 mph - N/A   Clear
4:35 PM 63.1 °F - 11.7 °F 13% 30.26 in 10.0 mi South 5.8 mph - N/A   Clear
4:55 PM 64.0 °F - 12.4 °F 13% 30.25 in 10.0 mi SSW 6.9 mph - N/A   Clear
5:15 PM 63.0 °F - 10.0 °F 13% 30.25 in 10.0 mi South 8.1 mph - N/A   Clear
5:35 PM 63.0 °F - 10.0 °F 13% 30.25 in 10.0 mi South 6.9 mph - N/A   Clear
5:55 PM 63.0 °F - 19.4 °F 19% 30.25 in 10.0 mi SSE 5.8 mph - N/A   Clear
6:15 PM 63.0 °F - 25.3 °F 24% 30.26 in 10.0 mi SSE 6.9 mph - N/A   Clear
6:35 PM 60.4 °F - 27.0 °F 28% 30.26 in 10.0 mi SE 9.2 mph - N/A   Clear
6:55 PM 59.0 °F - 30.7 °F 34% 30.27 in 10.0 mi SE 6.9 mph - N/A   Clear
7:15 PM 58.1 °F - 35.2 °F 42% 30.27 in 10.0 mi ESE 6.9 mph - N/A   Clear
7:35 PM 54.5 °F - 39.6 °F 57% 30.27 in 10.0 mi ESE 5.8 mph - N/A   Clear
7:55 PM 54.0 °F - 41.5 °F 63% 30.28 in 10.0 mi ESE 5.8 mph - N/A   Clear
8:15 PM 52.7 °F - 42.4 °F 68% 30.28 in 10.0 mi ESE 6.9 mph - N/A   Clear
8:35 PM 52.7 °F - 43.2 °F 70% 30.28 in 10.0 mi ESE 5.8 mph - N/A   Clear
9:15 PM 50.2 °F - 41.4 °F 72% 30.29 in 10.0 mi ESE 5.8 mph - N/A   Clear
9:35 PM 48.9 °F - 41.2 °F 75% 30.29 in 10.0 mi ESE 4.6 mph - N/A   Clear
9:55 PM 47.8 °F - 41.0 °F 77% 30.29 in 10.0 mi ESE 4.6 mph - N/A   Clear
10:15 PM 47.7 °F - 41.5 °F 79% 30.29 in 10.0 mi East 3.5 mph - N/A   Clear
10:35 PM 46.0 °F 44.8 °F 40.5 °F 81% 30.28 in 10.0 mi East 3.5 mph - N/A   Clear
10:55 PM 45.9 °F - 40.3 °F 81% 30.29 in 10.0 mi Calm Calm - N/A   Clear
11:15 PM 45.7 °F - 40.1 °F 81% 30.29 in 10.0 mi Calm Calm - N/A   Clear
11:35 PM 45.0 °F - 39.4 °F 81% 30.29 in 10.0 mi Calm Calm - N/A   Clear
11:55 PM 43.7 °F - 38.1 °F 81% 30.28 in 10.0 mi Calm Calm - N/A   Clear
12:15 AM 42.8 °F 41.1 °F 37.4 °F 81% 30.28 in 10.0 mi East 3.5 mph - N/A   Clear
12:35 AM 42.8 °F - 37.4 °F 81% 30.27 in 10.0 mi Calm Calm - N/A   Clear
12:55 AM 42.8 °F - 37.4 °F 81% 30.27 in 7.0 mi Calm Calm - N/A   Clear